Location: Unspecified
(0.0000°N, 0.0000°E)
Time: 13:41:29
(UTC+00:00)

Transit 2A Rocket - All Passes

Search period start: 07 October 2022 00:00
Search period end: 17 October 2022 00:00
Orbit: 593 x 908 km, 66.7° (Epoch: 06 October)

Date Brightness Start Highest point End Pass type
(mag) Time Alt. Az. Time Alt. Az. Time Alt. Az.
07 Oct - 02:24:48 10° SSE 02:28:34 23° ESE 02:32:06 10° ENE night (unlit)
07 Oct - 04:08:05 10° WSW 04:10:45 15° WNW 04:13:21 10° NW night (unlit)
07 Oct - 14:51:41 10° NNW 14:57:14 73° ENE 15:03:11 10° SSE daylight
08 Oct - 03:23:43 10° SW 03:27:59 35° WNW 03:32:00 10° N night (unlit)
08 Oct - 14:09:23 10° N 14:14:26 35° ENE 14:19:47 10° SE daylight
08 Oct - 15:53:02 10° WNW 15:56:51 18° WSW 16:00:48 10° SSW daylight
09 Oct - 02:40:27 10° SSW 02:45:11 88° WNW 02:49:35 10° NNE night (unlit)
09 Oct - 13:28:01 10° NNE 13:31:38 18° ENE 13:35:24 10° ESE daylight
09 Oct - 15:08:46 10° NW 15:13:54 36° WSW 15:19:21 10° S daylight
10 Oct - 01:57:57 10° S 02:02:20 38° ESE 02:06:26 10° NE night (unlit)
10 Oct - 14:25:25 10° NNW 14:31:01 74° WSW 14:37:00 10° SSE daylight
11 Oct - 01:16:26 10° SSE 01:19:24 17° ESE 01:22:15 10° ENE night (unlit)
11 Oct - 02:58:11 10° WSW 03:01:40 21° WNW 03:05:00 10° NNW night (unlit)
11 Oct - 13:42:42 10° N 13:48:11 55° ENE 13:54:00 10° SSE daylight
11 Oct - 15:28:52 10° W 15:30:42 11° WSW 15:32:34 10° SW daylight
12 Oct - 02:14:22 10° SW 02:18:53 50° WNW 02:23:07 10° N night (unlit)
12 Oct - 13:00:42 10° NNE 13:05:22 27° ENE 13:10:18 10° SE daylight
12 Oct - 14:43:12 10° WNW 14:47:44 24° WSW 14:52:27 10° SSW daylight
13 Oct - 01:31:25 10° SSW 01:36:05 65° ESE 01:40:24 10° NNE night (unlit)
13 Oct - 12:20:02 10° NE 12:22:34 13° ENE 12:25:09 10° E daylight
13 Oct - 13:59:22 10° NW 14:04:48 48° WSW 14:10:34 10° S daylight
14 Oct - 00:49:13 10° S 00:53:11 27° ESE 00:56:55 10° NE night (unlit)
14 Oct - 02:33:28 10° W 02:35:21 12° WNW 02:37:12 10° NW night (unlit)
14 Oct - 13:16:17 10° NNW 13:21:55 85° ENE 13:27:57 10° SSE daylight
15 Oct - 00:08:37 10° SE 00:10:14 12° ESE 00:11:49 10° E night (unlit)
15 Oct - 01:48:34 10° SW 01:52:34 29° WNW 01:56:21 10° N night (unlit)
15 Oct - 12:33:49 10° N 12:39:06 42° ENE 12:44:42 10° SE daylight
15 Oct - 14:18:11 10° WNW 14:21:33 16° WSW 14:25:01 10° SSW daylight
16 Oct - 01:05:08 10° SSW 01:09:47 73° WNW 01:14:06 10° NNE night (unlit)
16 Oct - 11:52:10 10° NNE 11:56:18 21° ENE 12:00:36 10° ESE daylight
16 Oct - 13:33:35 10° NW 13:38:36 31° WSW 13:43:52 10° S daylight
